Wind_Speed
7 7 7 7 7 6 6 6 6 5 5 4 5 5 5 5 5 5 6 6 6 6 7 7 7 8 8 9 9 9 9 9 9 9 10 10 10 10 11 11 11 12 12
7 7 7 7 7 7 7 7 6 6 6 6 6 5 5 6 6 7 7 7 8 8 8 8 8 9 9 9 9 9 10 10 11 11 11 12 12 12 12 12 13 13 12
8 9 8 8 8 8 8 8 7 7 7 7 7 6 7 7 7 8 8 9 9 9 10 10 10 10 10 11 10 10 11 11 12 12 12 13 13 14 14 14 14 14 13
9 9 9 9 10 9 9 9 8 8 9 9 8 8 8 9 9 10 10 10 10 11 11 11 12 11 11 12 12 12 12 12 13 13 13 14 14 14 15 16 15 14 14
9 9 10 11 11 11 11 10 10 10 10 10 10 10 10 10 11 12 12 12 12 12 13 13 13 13 13 13 13 14 14 14 14 15 15 15 15 15 16 16 15 15 15
10 11 11 12 12 12 12 12 11 11 11 12 12 12 12 13 13 13 14 14 14 14 14 14 15 15 15 15 15 15 15 15 16 16 16 16 16 16 16 16 16 16 16
12 12 13 13 13 13 14 13 12 12 12 13 13 13 13 14 14 15 15 15 15 15 15 15 16 16 16 16 16 16 16 16 16 16 17 17 16 17 17 17 18 17 17
14 14 14 14 14 14 15 15 14 14 14 13 14 14 15 15 15 16 16 16 16 16 16 16 16 16 17 17 17 17 17 17 18 18 18 18 18 18 18 18 18 18 19
15 15 14 15 15 15 16 16 16 15 15 15 15 16 16 16 16 16 16 16 17 17 17 17 17 17 18 19 19 19 19 19 19 19 19 19 20 20 19 19 19 20 20
16 16 16 16 17 16 16 16 16 16 16 17 17 17 17 17 17 17 17 17 18 18 19 19 19 19 19 20 20 20 20 20 20 20 20 20 21 21 20 21 21 21 21
17 17 17 17 17 17 17 17 17 17 17 18 18 17 18 18 18 17 17 18 19 19 19 20 20 20 21 21 21 21 21 22 21 21 21 21 22 21 21 22 22 23 22
19 19 19 19 18 18 18 18 18 18 18 18 18 17 17 18 18 18 19 19 20 20 20 21 21 21 21 21 21 22 22 22 22 22 23 23 23 23 23 23 23 23 23
20 20 20 20 19 19 19 19 19 19 19 19 19 18 18 18 18 19 19 20 20 20 21 22 22 22 22 22 22 22 23 23 23 23 23 23 23 24 24 24 24 24 24
21 21 21 21 20 19 19 19 20 20 20 20 20 20 19 20 19 19 20 20 21 21 22 22 22 22 23 23 23 23 24 24 24 25 24 25 25 25 25 25 25 24 24
21 21 22 22 21 21 20 20 20 21 21 21 21 20 20 21 20 20 20 20 21 21 21 21 22 22 23 23 23 23 24 24 25 25 25 25 25 25 25 25 25 25 24
21 21 21 21 21 22 22 21 21 21 22 22 21 21 22 22 21 21 20 20 20 20 20 21 21 22 23 23 23 24 25 26 25 25 25 25 25 25 25 25 25 24 25
23 22 21 21 21 22 22 22 22 22 22 22 22 22 23 23 22 22 21 20 20 21 21 21 21 22 22 23 23 24 24 24 24 24 25 25 25 25 25 25 25 26 26
24 23 22 22 22 22 22 23 23 23 22 23 23 24 24 24 23 23 22 22 21 21 21 21 21 22 22 23 23 24 23 23 24 24 24 24 24 24 24 25 25 26 26
24 23 22 22 22 23 23 23 23 23 23 23 23 24 25 24 23 23 23 22 22 21 21 22 22 22 22 23 23 24 24 23 24 23 24 24 24 25 25 26 26 27 27
24 23 23 22 23 24 24 24 23 23 24 24 23 23 24 23 23 22 22 22 22 22 22 23 23 23 23 23 23 23 24 24 24 24 24 24 25 26 26 27 27 26 26
25 25 24 24 24 24 24 25 25 24 24 24 23 22 23 23 23 23 23 23 23 23 23 23 24 23 23 24 23 23 24 24 25 24 24 25 25 25 26 26 26 25 26
26 26 25 25 25 25 25 25 25 24 25 24 24 24 24 24 24 24 24 25 24 24 23 23 23 23 22 22 22 23 23 24 25 25 25 25 25 25 25 25 25 25 25
26 27 27 26 26 26 26 26 26 25 25 25 25 25 25 25 25 25 24 24 24 25 23 22 22 22 22 22 22 24 24 24 24 24 24 25 24 24 24 24 24 24 24
27 27 27 28 27 27 27 27 27 26 25 25 26 26 25 25 25 25 24 24 23 24 23 23 23 23 22 21 22 23 24 24 24 25 25 24 23 23 24 24 23 23 24
28 28 28 28 27 27 27 28 28 27 27 26 26 25 25 25 25 24 24 24 24 23 24 24 24 23 22 21 22 23 23 24 24 24 24 24 23 23 23 24 23 23 24
29 28 28 27 27 27 27 27 27 27 26 26 25 25 25 25 25 25 24 24 24 24 24 24 24 22 22 22 22 23 23 23 23 22 21 22 23 23 23 22 22 23 22
Wind_Direction
346 340 338 336 330 331 328 318 312 310 305 291 288 280 279 274 275 277 275 276 274 271 272 274 270 271 271 271 272 271 272 274 277 279 278 278 274 276 278 279 280 276 272
334 333 328 325 320 320 323 317 313 309 306 300 295 278 276 275 273 272 276 278 276 274 273 275 273 271 271 271 272 273 272 275 277 278 278 278 278 276 279 278 280 277 271
327 330 329 324 319 314 311 310 303 302 302 298 293 284 284 281 279 279 278 277 276 276 278 277 276 275 274 272 275 275 275 277 278 278 277 278 278 278 279 280 281 278 272
322 326 326 325 323 318 309 301 298 299 299 298 292 289 286 284 284 282 281 281 281 279 278 278 277 276 275 275 276 277 278 278 279 279 278 280 281 277 277 279 281 278 275
314 320 321 320 318 315 310 302 299 299 299 297 294 291 288 287 286 286 284 284 283 282 280 278 276 277 276 276 276 276 277 278 278 278 278 278 280 280 279 280 283 281 279
308 312 315 315 315 313 309 307 303 300 295 294 294 292 288 286 285 284 283 282 282 280 281 279 280 280 278 277 277 276 277 277 277 277 277 277 275 278 282 281 280 281 282
302 306 308 311 311 310 306 304 302 299 296 293 293 293 290 289 288 286 286 285 283 281 281 279 280 281 280 278 278 276 276 276 276 276 277 277 276 277 279 281 278 277 281
295 299 304 307 309 308 308 304 302 300 297 294 291 291 290 289 290 288 285 284 283 282 282 282 282 281 280 278 278 277 275 275 274 275 276 277 278 277 278 280 278 278 282
291 292 295 299 303 305 305 305 303 301 299 294 291 291 290 289 288 288 286 282 281 281 281 282 281 281 280 278 277 276 275 274 274 275 276 276 277 276 277 276 277 278 281
287 288 291 295 298 300 303 303 302 301 299 297 295 293 291 290 287 287 287 283 281 280 279 280 280 280 278 277 276 275 273 273 274 274 274 275 275 274 275 275 277 277 280
282 285 289 293 296 297 299 300 299 299 298 298 295 295 296 293 286 286 287 285 283 281 280 279 279 279 277 276 275 274 273 273 273 273 273 275 275 275 275 275 276 277 278
280 282 286 289 293 295 296 296 297 298 297 297 298 299 297 295 290 285 287 287 285 282 281 280 278 277 277 275 274 273 274 273 274 275 274 274 275 274 275 276 277 279 278
277 279 280 284 288 291 294 294 295 295 295 295 298 300 299 296 292 288 287 287 286 284 282 282 279 277 276 275 274 274 274 274 274 274 274 274 274 274 275 276 278 279 279
276 275 276 279 282 287 291 294 295 295 294 295 296 298 298 297 292 289 287 287 286 285 284 282 280 278 277 276 276 275 274 275 275 275 275 275 275 275 275 276 277 277 278
277 276 276 279 282 285 287 290 293 293 293 294 294 295 295 294 292 291 289 288 289 287 285 283 281 278 277 276 276 276 276 276 276 275 275 276 276 276 276 276 277 276 276
280 279 277 277 281 283 283 287 290 292 293 294 295 294 295 293 292 291 289 288 289 289 287 285 283 280 278 277 277 276 276 276 275 275 275 275 275 275 277 276 275 276 277
280 278 278 279 279 281 283 284 287 290 293 294 295 295 295 294 291 291 287 286 287 286 286 285 283 282 280 279 280 280 279 277 276 275 275 274 274 275 275 275 276 277 277
279 276 274 275 276 278 281 284 286 288 291 293 294 296 295 295 291 289 290 288 286 286 287 287 286 284 282 280 280 280 281 280 278 277 277 276 277 277 276 276 276 276 277
276 275 273 272 275 278 281 283 286 287 289 291 292 295 295 295 292 292 291 288 286 287 288 288 287 285 283 281 280 280 281 281 279 278 278 277 277 276 276 277 278 279 280
273 273 273 273 276 277 279 279 282 286 287 288 289 292 294 296 296 294 293 290 287 287 286 286 286 286 284 282 281 281 281 280 279 279 279 279 278 277 277 278 278 278 279
269 269 270 273 275 277 278 280 281 283 286 287 289 290 292 293 295 295 296 294 292 291 287 285 287 287 285 284 282 281 281 281 280 280 279 279 280 279 279 278 277 278 278
268 267 268 271 274 276 278 280 282 282 283 285 287 288 289 291 292 293 295 294 294 293 291 287 288 290 289 288 283 283 284 285 282 280 280 279 279 278 278 278 277 278 278
266 266 267 270 272 274 277 279 280 281 283 284 286 287 289 290 289 291 293 293 293 293 292 292 291 291 290 289 287 286 284 286 285 282 280 278 277 276 277 278 278 279 277
266 265 265 268 270 272 274 277 279 281 283 285 285 286 288 289 289 288 290 291 290 291 292 292 291 290 289 290 289 287 285 284 283 282 279 276 276 276 278 279 279 278 278
267 267 267 266 268 270 271 275 278 280 283 284 286 288 288 289 289 289 287 287 289 291 292 292 292 291 289 289 288 288 289 286 285 283 279 276 275 277 279 280 278 277 276
266 266 266 266 267 268 270 273 276 279 282 285 287 288 289 289 290 290 288 287 288 289 290 291 291 290 288 287 288 289 289 287 285 281 280 278 277 277 278 278 278 276 275
Height
5901 5900 5898 5896 5895 5893 5892 5890 5889 5888 5887 5886 5886 5885 5884 5884 5883 5883 5882 5881 5881 5880 5880 5879 5879 5879 5879 5878 5877 5877 5877 5876 5876 5876 5875 5875 5875 5874 5874 5873 5873 5872 5871
5901 5899 5897 5896 5894 5892 5891 5889 5888 5887 5886 5885 5884 5883 5883 5882 5881 5881 5880 5879 5879 5878 5877 5877 5877 5876 5876 5875 5875 5875 5874 5874 5873 5873 5873 5873 5873 5872 5871 5870 5870 5869 5868
5900 5898 5897 5895 5893 5891 5890 5888 5887 5886 5885 5884 5883 5882 5881 5880 5880 5879 5878 5877 5876 5876 5875 5874 5874 5874 5873 5873 5872 5872 5872 5871 5871 5870 5870 5869 5869 5868 5868 5867 5866 5866 5865
5899 5897 5895 5893 5892 5890 5888 5886 5885 5884 5883 5882 5880 5880 5879 5878 5877 5876 5875 5874 5873 5873 5872 5872 5871 5870 5870 5870 5869 5869 5868 5868 5867 5867 5866 5866 5865 5865 5864 5864 5863 5862 5862
5897 5896 5894 5892 5890 5888 5886 5884 5883 5882 5881 5880 5879 5878 5877 5876 5875 5874 5873 5871 5870 5869 5869 5868 5867 5867 5867 5866 5866 5865 5865 5864 5864 5863 5862 5862 5861 5861 5860 5860 5859 5859 5858
5895 5893 5892 5890 5888 5886 5885 5883 5881 5880 5879 5877 5876 5875 5874 5873 5872 5871 5869 5868 5867 5866 5865 5864 5863 5863 5862 5862 5861 5861 5861 5860 5859 5859 5858 5857 5857 5857 5856 5856 5855 5854 5854
5892 5891 5889 5887 5886 5884 5882 5880 5879 5877 5876 5874 5873 5872 5871 5869 5868 5867 5866 5864 5863 5862 5861 5860 5859 5858 5858 5857 5857 5856 5856 5855 5855 5854 5853 5852 5852 5852 5851 5851 5850 5850 5849
5889 5888 5886 5885 5883 5881 5879 5877 5876 5874 5872 5871 5870 5868 5867 5866 5864 5863 5861 5860 5858 5857 5856 5855 5854 5853 5853 5852 5852 5851 5851 5850 5850 5849 5849 5848 5848 5847 5846 5846 5845 5845 5844
5886 5884 5883 5881 5880 5878 5876 5874 5872 5870 5869 5867 5866 5864 5863 5861 5860 5858 5857 5855 5854 5853 5852 5851 5850 5849 5848 5847 5846 5846 5845 5845 5844 5844 5843 5843 5843 5842 5841 5841 5840 5840 5839
5882 5881 5879 5878 5876 5874 5872 5870 5868 5866 5865 5863 5862 5860 5858 5856 5855 5853 5852 5850 5849 5848 5847 5846 5844 5843 5842 5841 5840 5840 5839 5839 5839 5838 5838 5837 5837 5836 5836 5835 5834 5834 5833
5878 5876 5875 5873 5871 5870 5868 5866 5864 5862 5861 5859 5857 5855 5853 5852 5850 5848 5847 5845 5844 5842 5841 5840 5839 5837 5836 5835 5834 5834 5833 5833 5832 5832 5832 5831 5831 5830 5829 5829 5828 5827 5827
5873 5871 5870 5869 5867 5865 5863 5862 5860 5858 5856 5854 5852 5850 5848 5846 5845 5843 5841 5840 5838 5837 5835 5834 5832 5831 5830 5829 5828 5827 5826 5826 5826 5825 5825 5824 5824 5823 5823 5822 5822 5821 5820
5867 5866 5865 5863 5862 5860 5858 5857 5855 5853 5851 5849 5847 5845 5843 5841 5839 5837 5835 5834 5832 5831 5829 5827 5826 5825 5823 5822 5821 5821 5820 5819 5819 5818 5818 5817 5817 5816 5816 5815 5815 5814 5814
5862 5860 5859 5858 5856 5855 5853 5851 5850 5848 5846 5844 5842 5840 5838 5835 5833 5831 5829 5828 5826 5824 5822 5821 5819 5818 5816 5815 5814 5814 5813 5812 5811 5811 5811 5810 5810 5809 5808 5808 5808 5807 5806
5855 5854 5853 5852 5850 5849 5848 5846 5844 5843 5841 5839 5837 5834 5832 5829 5827 5825 5823 5821 5819 5818 5816 5814 5812 5811 5810 5809 5807 5806 5805 5805 5804 5804 5803 5803 5802 5802 5801 5801 5800 5800 5799
5849 5848 5847 5846 5845 5843 5842 5840 5839 5837 5835 5833 5831 5829 5826 5823 5821 5819 5817 5815 5813 5811 5809 5808 5806 5804 5803 5802 5801 5799 5798 5797 5797 5796 5796 5796 5795 5795 5794 5794 5793 5793 5792
5842 5842 5841 5840 5839 5837 5836 5834 5833 5831 5830 5827 5825 5823 5820 5818 5815 5813 5811 5809 5807 5805 5803 5801 5799 5798 5796 5795 5794 5792 5791 5790 5790 5789 5789 5788 5788 5787 5787 5786 5786 5785 5784
5836 5835 5834 5833 5832 5831 5830 5828 5827 5825 5823 5821 5819 5817 5814 5811 5809 5807 5805 5802 5800 5799 5797 5795 5793 5791 5790 5788 5787 5786 5784 5783 5783 5782 5781 5781 5781 5780 5779 5779 5778 5777 5776
5828 5827 5827 5826 5825 5824 5823 5822 5820 5819 5817 5815 5813 5810 5808 5805 5803 5801 5798 5796 5794 5792 5790 5788 5786 5784 5783 5781 5780 5779 5778 5777 5776 5775 5774 5774 5773 5773 5772 5771 5770 5769 5768
5820 5820 5819 5819 5818 5817 5816 5815 5814 5812 5810 5808 5806 5804 5801 5799 5797 5794 5792 5789 5787 5785 5783 5781 5779 5777 5776 5774 5773 5772 5771 5770 5769 5768 5767 5767 5766 5765 5764 5763 5762 5762 5760
5812 5812 5812 5811 5811 5810 5809 5808 5807 5805 5803 5801 5799 5797 5795 5793 5790 5788 5785 5783 5780 5778 5776 5774 5773 5771 5769 5768 5766 5765 5764 5762 5761 5761 5760 5759 5759 5758 5757 5756 5755 5754 5753
5804 5803 5804 5804 5803 5802 5801 5800 5799 5798 5796 5794 5792 5790 5788 5786 5784 5781 5779 5776 5773 5771 5769 5767 5766 5764 5762 5760 5759 5758 5756 5755 5754 5753 5752 5752 5751 5750 5749 5749 5748 5747 5746
5795 5795 5795 5795 5795 5794 5793 5792 5791 5790 5788 5786 5785 5783 5781 5779 5776 5774 5772 5769 5767 5765 5763 5761 5759 5757 5755 5753 5752 5751 5749 5748 5747 5746 5745 5744 5743 5743 5742 5742 5741 5740 5739
5786 5786 5786 5786 5786 5785 5785 5784 5783 5782 5780 5779 5778 5776 5774 5771 5769 5767 5765 5763 5761 5758 5756 5755 5753 5751 5748 5747 5745 5744 5742 5741 5740 5739 5737 5737 5736 5736 5735 5734 5733 5732 5732
5777 5777 5777 5777 5777 5777 5776 5776 5775 5774 5773 5771 5770 5768 5766 5764 5762 5760 5758 5756 5754 5752 5750 5748 5746 5744 5742 5741 5739 5737 5735 5734 5733 5732 5730 5730 5729 5729 5728 5727 5726 5726 5725
5768 5768 5768 5768 5768 5768 5768 5767 5767 5766 5764 5763 5762 5760 5759 5757 5755 5752 5750 5748 5747 5745 5743 5741 5739 5737 5736 5734 5732 5731 5729 5728 5726 5725 5724 5723 5723 5722 5721 5720 5720 5719 5718